Hourly Weather Roundup
Issued by NWS Central Illinois

Home | Current Version | Previous Version | Text Only | Print | Product List | Glossary On
Versions: 1 2 3 4 5 6 7 8 9 10 11 12 13 14 15 16 17 18 19 20 21 22 23 24 25 26 27 28 29 30 31 32 33 34 35 36 37 38 39 40 41 42 43 44 45 46 47 48 49 50
000
NZUS43 KILX 210610
HWRILX

AREA WEATHER ROUNDUP
NATIONAL WEATHER SERVICE, LINCOLN IL
100 AM CDT TUE OCT 21 2014


CITY           SKY/WX    TMP DP  RH WIND       PRES   REMARKS
BLOOMINGTON    CLEAR     47  43  86 N3        30.02S
6HR MIN TEMP:  47; 6HR MAX TEMP:  58;

CHAMPAIGN      CLEAR     48  45  89 CALM      30.00S
6HR MIN TEMP:  48; 6HR MAX TEMP:  57;

DECATUR        CLEAR     48  42  80 N5        30.01S
6HR MIN TEMP:  47; 6HR MAX TEMP:  61;

FLORA          CLEAR     47  43  86 CALM      30.00S
6HR MIN TEMP:  47; 6HR MAX TEMP:  62;

GALESBURG      CLEAR     43  40  89 CALM      30.03R
JACKSONVILLE   CLEAR     49  44  80 W7        30.01S
6HR MIN TEMP:  49; 6HR MAX TEMP:  61;

LACON          CLEAR     40  38  93 CALM      30.02S
6HR MIN TEMP:  39; 6HR MAX TEMP:  52;

LAWRENCEVILLE  CLEAR     50  45  83 W6        29.99S
6HR MIN TEMP:  49; 6HR MAX TEMP:  60;

LITCHFIELD     CLEAR     47  42  82 CALM      30.01S
$$


CITY           SKY/WX    TMP DP  RH WIND       PRES   REMARKS
LINCOLN        CLEAR     48  43  83 N3        30.00S
6HR MIN TEMP:  48; 6HR MAX TEMP:  59;

MACOMB         CLEAR     47  42  84 N6        30.05R
MATTOON        CLEAR     48  42  80 CALM      29.99S
6HR MIN TEMP:  47; 6HR MAX TEMP:  56;

MT CARMEL AP   CLEAR     48  45  87 NW3       29.99S
OLNEY-NOBLE AP CLEAR     48  43  81 CALM      29.99F
PARIS          CLOUDY    49  47  91 CALM      30.00S
6HR MIN TEMP:  49; 6HR MAX TEMP:  57;

PEORIA         CLEAR     49  42  77 CALM      30.03R
6HR MIN TEMP:  49; 6HR MAX TEMP:  62;

PONTIAC        CLOUDY    48  46  93 CALM      30.01S
RANTOUL        PTCLDY    49  45  86 CALM      30.01S
6HR MIN TEMP:  49; 6HR MAX TEMP:  60;

ROBINSON       CLEAR     47  44  90 NW3       30.00S
6HR MIN TEMP:  47; 6HR MAX TEMP:  63;

SPRINGFIELD    CLEAR     45  41  86 N5        30.01R
6HR MIN TEMP:  45; 6HR MAX TEMP:  60;

TAYLORVILLE    CLEAR     46  43  87 CALM      30.00S
$$

...REGIONAL REPORTS...


CITY           SKY/WX    TMP DP  RH WIND       PRES   REMARKS
CHICAGO O`HARE CLOUDY    51  42  71 N6        30.00R
KANKAKEE       CLOUDY    52  47  84 CALM      30.01R
MOLINE         CLEAR     43  40  89 CALM      30.04R
MOUNT VERNON   CLEAR     45  39  81 CALM      30.01S
PITTSFIELD     CLEAR     49  44  81 W5        30.03S
QUINCY         CLEAR     51  43  74 NW6       30.02S
ROCKFORD       MOCLDY    47  40  76 NW7       30.05R
$$


CITY           SKY/WX    TMP DP  RH WIND       PRES   REMARKS
BURLINGTON     CLEAR     48  42  80 N5        30.03R
CEDAR RAPIDS   CLEAR     46  41  82 E7        30.04S
DES MOINES     CLEAR     49  41  74 CALM      30.06R
KIRKSVILLE     CLEAR     44  42  93 NW3       30.06R
OTTUMWA        CLEAR     44  39  82 NW5       30.04S
ST LOUIS       CLEAR     53  45  74 W3        30.03R
$$


CITY           SKY/WX    TMP DP  RH WIND       PRES   REMARKS
TERRE HAUTE    MOCLDY    49  44  83 NW3       29.99R
EVANSVILLE     CLEAR     55  44  66 NW5       29.99S
INDIANAPOLIS   PTCLDY    48  44  86 NW7       29.97R
LAFAYETTE      PTCLDY    47  45  93 NW5       29.98S
MADISON        CLOUDY    48  39  71 N6        30.04R
MILWAUKEE      CLOUDY    49  41  74 N9        30.01F
$$





USA.gov is the U.S. government's official web portal to all federal, state and local government web resources and services.